Time,TemperatureF,DewpointF,PressureIn,WindDirection,WindDirectionDegrees,WindSpeedMPH,WindSpeedGustMPH,Humidity,HourlyPrecipIn,Conditions,Clouds,dailyrainin,SolarRadiationWatts/m^2,SoftwareType,DateUTC
2013-05-20 08:50:00,65.7,60.1,29.77,NE,50,6.0,6.0,82,0.00,,,0.00,381,Wunderground v.1.15,2013-05-20 14:50:00,
2013-05-20 08:55:00,65.9,59.9,29.76,NE,54,6.0,6.0,81,0.00,,,0.00,383,Wunderground v.1.15,2013-05-20 14:55:00,
2013-05-20 09:00:00,66.0,60.0,29.77,NE,51,6.0,10.0,81,0.00,,,0.00,390,Wunderground v.1.15,2013-05-20 15:00:00,
2013-05-20 09:05:00,66.1,60.1,29.77,NE,43,6.0,12.0,81,0.00,,,0.00,403,Wunderground v.1.15,2013-05-20 15:05:00,
2013-05-20 09:10:00,66.2,60.2,29.77,ENE,57,7.0,7.0,81,0.00,,,0.00,420,Wunderground v.1.15,2013-05-20 15:10:00,
2013-05-20 09:15:00,66.2,59.8,29.76,ENE,57,8.0,8.0,80,0.00,,,0.00,443,Wunderground v.1.15,2013-05-20 15:15:00,
2013-05-20 09:20:00,66.3,60.3,29.77,ENE,78,7.0,7.0,81,0.00,,,0.00,443,Wunderground v.1.15,2013-05-20 15:20:00,
2013-05-20 09:25:00,66.6,60.6,29.77,ENE,64,5.0,7.0,81,0.00,,,0.00,445,Wunderground v.1.15,2013-05-20 15:25:00,
2013-05-20 09:30:00,66.7,60.3,29.76,ENE,60,5.0,10.0,80,0.00,,,0.00,452,Wunderground v.1.15,2013-05-20 15:30:00,
2013-05-20 09:35:00,66.6,60.6,29.76,ENE,61,6.0,25.0,81,0.00,,,0.00,462,Wunderground v.1.15,2013-05-20 15:35:00,
2013-05-20 09:40:00,66.6,60.2,29.76,SSE,161,5.0,5.0,80,0.00,,,0.00,478,Wunderground v.1.15,2013-05-20 15:40:00,
2013-05-20 09:45:00,66.6,60.6,29.76,NNE,31,4.0,10.0,81,0.00,,,0.00,489,Wunderground v.1.15,2013-05-20 15:45:00,
2013-05-20 09:50:00,66.5,60.5,29.76,North,355,7.0,25.0,81,0.00,,,0.00,512,Wunderground v.1.15,2013-05-20 15:50:00,
2013-05-20 09:55:00,66.4,60.7,29.76,NNE,20,8.0,25.0,82,0.00,,,0.00,555,Wunderground v.1.15,2013-05-20 15:55:00,
2013-05-20 10:00:00,66.4,60.0,29.76,NE,46,10.0,10.0,80,0.00,,,0.00,661,Wunderground v.1.15,2013-05-20 16:00:00,
2013-05-20 10:05:00,66.5,60.1,29.76,NE,42,10.0,25.0,80,0.00,,,0.00,1137,Wunderground v.1.15,2013-05-20 16:05:00,
2013-05-20 10:10:00,67.4,61.0,29.76,NE,51,10.0,10.0,80,0.00,,,0.00,1229,Wunderground v.1.15,2013-05-20 16:10:00,
2013-05-20 10:15:00,68.5,62.1,29.75,East,90,8.0,25.0,80,0.00,,,0.00,1232,Wunderground v.1.15,2013-05-20 16:15:00,
2013-05-20 10:20:00,69.3,61.8,29.75,NE,51,7.0,25.0,77,0.00,,,0.00,694,Wunderground v.1.15,2013-05-20 16:20:00,
2013-05-20 10:25:00,69.4,61.5,29.75,NE,39,7.0,25.0,76,0.00,,,0.00,1164,Wunderground v.1.15,2013-05-20 16:25:00,
2013-05-20 10:30:00,69.4,61.5,29.75,ENE,66,9.0,9.0,76,0.00,,,0.00,1116,Wunderground v.1.15,2013-05-20 16:30:00,
2013-05-20 10:35:00,70.0,61.7,29.75,NNE,24,8.0,25.0,75,0.00,,,0.00,1230,Wunderground v.1.15,2013-05-20 16:35:00,
2013-05-20 10:40:00,69.6,61.3,29.76,NE,47,9.0,9.0,75,0.00,,,0.00,1060,Wunderground v.1.15,2013-05-20 16:40:00,
2013-05-20 10:45:00,69.4,61.1,29.76,ENE,60,10.0,10.0,75,0.00,,,0.00,997,Wunderground v.1.15,2013-05-20 16:45:00,
2013-05-20 10:50:00,69.4,61.5,29.75,NNE,28,9.0,25.0,76,0.00,,,0.00,1097,Wunderground v.1.15,2013-05-20 16:50:00,
2013-05-20 10:55:00,69.3,61.4,29.75,NE,44,9.0,25.0,76,0.00,,,0.00,1169,Wunderground v.1.15,2013-05-20 16:55:00,
2013-05-20 11:00:00,69.6,61.7,29.75,East,87,9.0,9.0,76,0.00,,,0.00,962,Wunderground v.1.15,2013-05-20 17:00:00,
2013-05-20 11:05:00,69.1,60.8,29.75,NE,55,11.0,13.0,75,0.00,,,0.00,991,Wunderground v.1.15,2013-05-20 17:05:00,
2013-05-20 11:10:00,69.1,61.2,29.75,NE,42,11.0,11.0,76,0.00,,,0.00,724,Wunderground v.1.15,2013-05-20 17:10:00,
2013-05-20 11:15:00,69.3,61.0,29.74,North,11,9.0,25.0,75,0.00,,,0.00,874,Wunderground v.1.15,2013-05-20 17:15:00,
2013-05-20 11:20:00,69.5,61.2,29.74,NE,48,10.0,25.0,75,0.00,,,0.00,1030,Wunderground v.1.15,2013-05-20 17:20:00,
2013-05-20 11:25:00,69.3,61.4,29.74,NNE,30,11.0,25.0,76,0.00,,,0.00,914,Wunderground v.1.15,2013-05-20 17:25:00,
2013-05-20 11:30:00,69.2,61.7,29.74,ENE,66,11.0,25.0,77,0.00,,,0.00,1021,Wunderground v.1.15,2013-05-20 17:30:00,
2013-05-20 11:35:00,69.6,61.3,29.73,NNE,21,11.0,25.0,75,0.00,,,0.00,1069,Wunderground v.1.15,2013-05-20 17:35:00,
2013-05-20 11:45:00,69.7,61.0,29.73,ENE,70,12.0,25.0,74,0.00,,,0.00,1192,Wunderground v.1.15,2013-05-20 17:45:00,
2013-05-20 11:50:00,69.9,61.2,29.73,NNE,31,13.0,13.0,74,0.00,,,0.00,1204,Wunderground v.1.15,2013-05-20 17:50:00,
2013-05-20 11:55:00,70.6,61.5,29.72,NE,48,12.0,25.0,73,0.00,,,0.00,1227,Wunderground v.1.15,2013-05-20 17:55:00,
2013-05-20 12:00:00,71.3,61.8,29.72,NE,34,9.0,25.0,72,0.00,,,0.00,1246,Wunderground v.1.15,2013-05-20 18:00:00,
2013-05-20 12:05:00,71.8,61.5,29.72,NE,46,9.0,25.0,70,0.00,,,0.00,1185,Wunderground v.1.15,2013-05-20 18:05:00,
2013-05-20 12:10:00,71.3,61.8,29.72,NE,54,11.0,11.0,72,0.00,,,0.00,1176,Wunderground v.1.15,2013-05-20 18:10:00,
2013-05-20 12:15:00,71.8,61.9,29.72,ENE,78,9.0,25.0,71,0.00,,,0.00,1230,Wunderground v.1.15,2013-05-20 18:15:00,
2013-05-20 12:20:00,72.4,62.1,29.72,NNE,33,7.0,25.0,70,0.00,,,0.00,1174,Wunderground v.1.15,2013-05-20 18:20:00,
2013-05-20 12:25:00,72.6,61.8,29.71,ENE,64,7.0,25.0,69,0.00,,,0.00,1130,Wunderground v.1.15,2013-05-20 18:25:00,
2013-05-20 12:30:00,72.7,61.5,29.71,NE,46,7.0,25.0,68,0.00,,,0.00,858,Wunderground v.1.15,2013-05-20 18:30:00,
2013-05-20 12:35:00,72.4,61.7,29.70,NE,51,7.0,25.0,69,0.00,,,0.00,1067,Wunderground v.1.15,2013-05-20 18:35:00,
2013-05-20 12:40:00,72.0,61.7,29.70,NE,51,10.0,25.0,70,0.00,,,0.00,1141,Wunderground v.1.15,2013-05-20 18:40:00,
2013-05-20 12:45:00,72.0,61.7,29.70,ENE,67,11.0,25.0,70,0.00,,,0.00,1185,Wunderground v.1.15,2013-05-20 18:45:00,
2013-05-20 12:50:00,72.2,61.9,29.70,ENE,69,9.0,9.0,70,0.00,,,0.00,1160,Wunderground v.1.15,2013-05-20 18:50:00,
2013-05-20 12:55:00,72.5,61.7,29.70,NE,44,9.0,15.0,69,0.00,,,0.00,1113,Wunderground v.1.15,2013-05-20 18:55:00,
2013-05-20 13:00:00,72.3,62.0,29.69,ENE,72,10.0,10.0,70,0.00,,,0.00,953,Wunderground v.1.15,2013-05-20 19:00:00,
2013-05-20 13:05:00,72.4,62.5,29.70,NE,40,10.0,25.0,71,0.00,,,0.00,1136,Wunderground v.1.15,2013-05-20 19:05:00,
2013-05-20 13:10:00,72.7,62.3,29.70,East,92,9.0,9.0,70,0.00,,,0.00,1174,Wunderground v.1.15,2013-05-20 19:10:00,
2013-05-20 13:15:00,73.4,62.2,29.70,ENE,72,6.0,25.0,68,0.00,,,0.00,1095,Wunderground v.1.15,2013-05-20 19:15:00,
2013-05-20 13:20:00,73.4,62.6,29.70,East,80,6.0,25.0,69,0.00,,,0.00,1067,Wunderground v.1.15,2013-05-20 19:20:00,
2013-05-20 13:25:00,73.6,62.0,29.70,East,82,7.0,25.0,67,0.00,,,0.00,1018,Wunderground v.1.15,2013-05-20 19:25:00,
2013-05-20 13:30:00,74.0,62.3,29.68,NE,42,5.0,5.0,67,0.00,,,0.00,1104,Wunderground v.1.15,2013-05-20 19:30:00,
2013-05-20 13:35:00,73.8,61.7,29.68,ENE,74,6.0,6.0,66,0.00,,,0.00,1009,Wunderground v.1.15,2013-05-20 19:35:00,
2013-05-20 13:40:00,73.2,62.0,29.68,NE,55,8.0,25.0,68,0.00,,,0.00,497,Wunderground v.1.15,2013-05-20 19:40:00,
2013-05-20 13:45:00,72.3,61.6,29.69,NE,53,7.0,25.0,69,0.00,,,0.00,517,Wunderground v.1.15,2013-05-20 19:45:00,
2013-05-20 13:55:00,70.5,61.0,29.68,ENE,69,9.0,25.0,72,0.00,,,0.00,371,Wunderground v.1.15,2013-05-20 19:55:00,
2013-05-20 14:00:00,69.9,60.8,29.68,NNE,26,9.0,25.0,73,0.00,,,0.00,350,Wunderground v.1.15,2013-05-20 20:00:00,
2013-05-20 14:05:00,69.2,60.6,29.68,NE,46,10.0,25.0,74,0.00,,,0.00,371,Wunderground v.1.15,2013-05-20 20:05:00,
2013-05-20 14:10:00,69.0,60.4,29.68,NNE,28,11.0,11.0,74,0.00,,,0.00,392,Wunderground v.1.15,2013-05-20 20:10:00,
2013-05-20 14:15:00,69.2,60.6,29.67,NE,36,7.0,25.0,74,0.00,,,0.00,355,Wunderground v.1.15,2013-05-20 20:15:00,
2013-05-20 14:20:00,69.4,60.8,29.67,ENE,59,5.0,5.0,74,0.00,,,0.00,322,Wunderground v.1.15,2013-05-20 20:20:00,
2013-05-20 14:25:00,69.7,60.3,29.67,ENE,65,5.0,6.0,72,0.00,,,0.00,288,Wunderground v.1.15,2013-05-20 20:25:00,
2013-05-20 14:30:00,69.7,60.3,29.67,ENE,68,6.0,25.0,72,0.00,,,0.00,264,Wunderground v.1.15,2013-05-20 20:30:00,
2013-05-20 14:35:00,69.6,60.6,29.67,NE,53,6.0,25.0,73,0.00,,,0.00,243,Wunderground v.1.15,2013-05-20 20:35:00,
2013-05-20 14:40:00,69.7,61.0,29.67,ESE,103,4.0,25.0,74,0.00,,,0.00,223,Wunderground v.1.15,2013-05-20 20:40:00,
2013-05-20 14:45:00,69.4,60.4,29.67,ENE,75,5.0,25.0,73,0.00,,,0.00,218,Wunderground v.1.15,2013-05-20 20:45:00,
2013-05-20 14:50:00,69.1,60.5,29.67,NNE,33,6.0,6.0,74,0.00,,,0.00,218,Wunderground v.1.15,2013-05-20 20:50:00,
2013-05-20 14:55:00,69.0,60.7,29.67,NE,36,6.0,13.0,75,0.00,,,0.00,209,Wunderground v.1.15,2013-05-20 20:55:00,
2013-05-20 15:00:00,68.7,60.5,29.67,North,5,7.0,25.0,75,0.00,,,0.00,211,Wunderground v.1.15,2013-05-20 21:00:00,
2013-05-20 15:05:00,68.6,60.7,29.66,NNE,33,5.0,25.0,76,0.00,,,0.00,227,Wunderground v.1.15,2013-05-20 21:05:00,
2013-05-20 15:10:00,68.7,60.5,29.66,ENE,67,2.0,25.0,75,0.00,,,0.00,185,Wunderground v.1.15,2013-05-20 21:10:00,
2013-05-20 15:15:00,68.5,60.3,29.66,NE,35,5.0,25.0,75,0.00,,,0.00,202,Wunderground v.1.15,2013-05-20 21:15:00,
2013-05-20 15:25:00,68.4,60.2,29.67,NNE,33,4.0,25.0,75,0.00,,,0.00,165,Wunderground v.1.15,2013-05-20 21:25:00,
2013-05-20 15:30:00,68.2,60.0,29.68,NNE,20,6.0,25.0,75,0.00,,,0.00,139,Wunderground v.1.15,2013-05-20 21:30:00,
2013-05-20 15:35:00,67.9,59.3,29.68,NE,44,6.0,25.0,74,0.00,,,0.00,111,Wunderground v.1.15,2013-05-20 21:35:00,
2013-05-20 15:40:00,67.8,59.2,29.68,SE,146,5.0,5.0,74,0.00,,,0.00,113,Wunderground v.1.15,2013-05-20 21:40:00,
2013-05-20 15:45:00,67.8,59.2,29.68,South,187,4.0,25.0,74,0.00,,,0.00,107,Wunderground v.1.15,2013-05-20 21:45:00,
2013-05-20 15:50:00,67.9,58.5,29.67,ESE,110,5.0,5.0,72,0.00,,,0.00,107,Wunderground v.1.15,2013-05-20 21:50:00,
2013-05-20 15:55:00,68.1,59.1,29.67,ESE,123,4.0,25.0,73,0.00,,,0.00,125,Wunderground v.1.15,2013-05-20 21:55:00,
2013-05-20 16:00:00,68.0,60.2,29.67,SSE,148,4.0,25.0,76,0.00,,,0.00,148,Wunderground v.1.15,2013-05-20 22:00:00,
2013-05-20 16:05:00,67.8,60.0,29.67,SSE,150,5.0,25.0,76,0.00,,,0.00,134,Wunderground v.1.15,2013-05-20 22:05:00,
2013-05-20 16:10:00,67.8,60.0,29.68,SE,124,3.0,3.0,76,0.00,,,0.00,137,Wunderground v.1.15,2013-05-20 22:10:00,
2013-05-20 16:15:00,67.4,58.4,29.68,SE,131,4.0,7.0,73,0.00,,,0.00,146,Wunderground v.1.15,2013-05-20 22:15:00,
2013-05-20 16:20:00,67.2,59.0,29.67,SSE,156,6.0,6.0,75,0.00,,,0.00,142,Wunderground v.1.15,2013-05-20 22:20:00,
2013-05-20 16:25:00,67.3,59.1,29.67,SSW,202,3.0,25.0,75,0.00,,,0.00,128,Wunderground v.1.15,2013-05-20 22:25:00,
2013-05-20 16:30:00,67.5,59.3,29.67,SSW,200,1.0,1.0,75,0.00,,,0.00,111,Wunderground v.1.15,2013-05-20 22:30:00,
2013-05-20 16:35:00,67.7,59.1,29.68,SSW,200,0.0,25.0,74,0.00,,,0.00,90,Wunderground v.1.15,2013-05-20 22:35:00,
2013-05-20 16:40:00,67.8,59.2,29.68,SSW,200,0.0,25.0,74,0.00,,,0.00,74,Wunderground v.1.15,2013-05-20 22:40:00,
2013-05-20 16:45:00,67.8,59.6,29.68,SSW,200,0.0,25.0,75,0.00,,,0.00,56,Wunderground v.1.15,2013-05-20 22:45:00,
2013-05-20 16:50:00,67.6,59.8,29.68,SSW,200,1.0,25.0,76,0.00,,,0.00,49,Wunderground v.1.15,2013-05-20 22:50:00,
2013-05-20 16:55:00,67.4,59.9,29.68,SSW,200,2.0,25.0,77,0.00,,,0.00,46,Wunderground v.1.15,2013-05-20 22:55:00,
2013-05-20 17:00:00,67.1,60.4,29.68,SSW,205,2.0,25.0,79,0.00,,,0.00,40,Wunderground v.1.15,2013-05-20 23:00:00,
2013-05-20 17:05:00,66.8,60.4,29.68,WSW,252,2.0,25.0,80,0.00,,,0.00,35,Wunderground v.1.15,2013-05-20 23:05:00,
2013-05-20 17:10:00,66.6,60.9,29.69,WSW,252,1.0,1.0,82,0.00,,,0.00,30,Wunderground v.1.15,2013-05-20 23:10:00,
2013-05-20 17:15:00,66.4,60.7,29.69,NNW,337,1.0,3.0,82,0.00,,,0.00,21,Wunderground v.1.15,2013-05-20 23:15:00,
2013-05-20 17:20:00,66.1,60.4,29.69,NNW,337,2.0,25.0,82,0.00,,,0.00,18,Wunderground v.1.15,2013-05-20 23:20:00,
2013-05-20 17:25:00,65.7,60.1,29.70,NNW,344,4.0,25.0,82,0.00,,,0.00,14,Wunderground v.1.15,2013-05-20 23:25:00,